Карточка аэропорта URKK

Внимание!
Информация на этой странице в стадии наполнения.
Если вы не увидели какой-то информации, или заметили неточность - пожалуйста сообщите нам!
Спасибо!
Команда RU-STAFF
Название аэропортаПашковский
Название аэропорта (англ.)Pashkovskiy
Превышение120 ft. (36.6 m.)
Координаты45°2.0820000000001', 39°10.218'
Высота перехода4000 ft
Эшелон переходаFL60 (QNH >= 977); FL70 (QNH < 977)
Коды ответчика1030-1037
Зона ОрВДРостов-на-Дону РПИ (URRV)
Данные METARURKK 250700Z 05004MPS 350V100 CAVOK 26/17 Q1006 R23L/CLRD70 NOSIG RMK QFE751
Проноз погоды (TAF)URKK 250446Z 2506/2606 06003G08MPS 9999 SCT040CB TEMPO 2506/2517 03006G12MPS FM251700 05003G08MPS CAVOK FM260200 07003G08MPS 9999 SCT040CB
NOTAMshow/hide NOTAM
AWOS   TABLE

Информация о ВПП

ВПП Длина ВПП (м.) Покрытие Курс ВПП Частота ILS
05L2200Асфальтобетон46 
23R2200Асфальтобетон226 
05R3000Железобетон46 
23L3000Железобетон226 

Диспетчерские позиции

Позывной Наименование органа УВД Частота
URKK_APPКраснодар-Подход129.6
URKK_GNDКраснодар-Руление119.0
URKK_R_APPКраснодар-Круг121.3
URKK_TWRКраснодар-Вышка118.2



Спутниковое изображение